Regional Weather Roundup
Issued by NWS

Home | Current Version | Previous Version | Text Only | Print | Product List | Glossary Off
Versions: 1 2 3 4 5 6 7 8 9 10 11 12 13 14 15 16 17 18 19 20 21 22 23 24 25 26 27 28 29 30 31 32 33 34 35 36 37 38 39 40 41 42 43 44 45 46 47 48 49 50

770
ASUS43 KOAX 201310
RWRNE

WEATHER ROUNDUP FOR NEBRASKA
NATIONAL WEATHER SERVICE OMAHA NE
700 AM CST MON NOV 20 2017

NOTES: SATELLITE DATA IS BEING USED TO AUGMENT CLOUD COVER ABOVE
       12000 FEET.
       "FAIR" INDICATES FEW OR NO CLOUDS BELOW 12,000 FEET WITH NO
       SIGNIFICANT WEATHER AND/OR OBSTRUCTIONS TO VISIBILITY.


NEZ001>004-019>022-054>056-201400-
NEBRASKA PANHANDLE

CITY           SKY/WX    TMP DP  RH WIND       PRES   REMARKS
SCOTTSBLUFF    CLOUDY    45   8  22 W10       29.74F
ALLIANCE       CLOUDY    44  11  26 W22       29.70F
CHADRON        CLOUDY    30  17  58 S6        29.67F WCI  24
GORDON         FAIR      37  15  40 SW6       29.66R WCI  33
KIMBALL        CLOUDY    45   4  18 W14       29.79F
SIDNEY         CLOUDY    40  10  29 W10       29.78S WCI  33
$$

NEZ057>060-069>072-079>082-201400-
SOUTHWEST NEBRASKA

CITY           SKY/WX    TMP DP  RH WIND       PRES   REMARKS
NORTH PLATTE   CLOUDY    20  16  84 NW5       29.76F WCI  13
IMPERIAL       CLOUDY    25  16  68 W7        29.78F WCI  17
LEXINGTON      CLOUDY    23  18  82 NW3       29.75F
MCCOOK         CLOUDY    26  21  81 W8        29.79F WCI  18
OGALLALA       CLOUDY    27  20  75 W12       29.75F WCI  17
$$

NEZ005>010-023>029-035>040-094-201400-
NORTH CENTRAL NEBRASKA

CITY           SKY/WX    TMP DP  RH WIND       PRES   REMARKS
VALENTINE      CLOUDY    36  18  48 SW9       29.63F WCI  29
AINSWORTH      CLOUDY    38  20  47 W12       29.63F WCI  31
BROKEN BOW     CLOUDY    38  18  44 W15       29.70F WCI  29
O`NEILL        CLOUDY    30  22  72 SW7       29.64S WCI  23
ORD            CLOUDY    26  19  74 CALM      29.68F
THEDFORD       CLOUDY    40  16  38 W8        29.69S WCI  35
$$

NEZ041-046>049-061>064-073>077-083>087-201400-
SOUTH CENTRAL NEBRASKA

CITY           SKY/WX    TMP DP  RH WIND       PRES   REMARKS
GRAND ISLAND   CLOUDY    35  25  66 SW10      29.73F WCI  27
AURORA         CLOUDY    30  24  79 SW12      29.73F WCI  20
HASTINGS       CLEAR     29  22  75 SW6       29.76F WCI  23
HEBRON         CLEAR     38  22  52 SW13G20   29.79F WCI  31
HOLDREGE       CLOUDY    35  22  60 W9        29.76S WCI  27
KEARNEY        CLOUDY    33  21  61 SW9       29.75F WCI  25
YORK           CLEAR     28  25  86 CALM      29.75S
$$

NEZ011>018-030>034-042>045-201400-
NORTHEAST NEBRASKA

CITY           SKY/WX    TMP DP  RH WIND       PRES   REMARKS
NORFOLK        CLOUDY    32  25  75 SW10      29.66F WCI  24
ALBION         CLOUDY    35  24  64 W5        29.68F WCI  31
COLUMBUS       CLOUDY    32  25  75 SW6       29.72F WCI  26
FREMONT        CLEAR     36  25  64 S9        29.73F WCI  29
TEKAMAH        CLEAR     35  24  64 S13       29.72F WCI  26
WAYNE          CLOUDY    31  26  81 SW12      29.66F WCI  22
$$

NEZ050>053-065>068-078-088>093-201400-
SOUTHEAST NEBRASKA

CITY           SKY/WX    TMP DP  RH WIND       PRES   REMARKS
LINCOLN        CLEAR     38  24  57 SW12      29.78F WCI  30
OMAHA EPPLEY   PTCLDY    34  26  72 S13       29.76F WCI  25
BEATRICE       CLEAR     38  25  60 S12       29.80F WCI  30
FALLS CITY     CLOUDY    40  26  57 S12       29.85F WCI  33
NEBRASKA CITY  CLEAR     37  27  66 SW15      29.80F WCI  28
PLATTSMOUTH    CLEAR     37  26  66 SE7       29.77F WCI  31
$$

NEZ044-045-051>053-067-201400-
OMAHA AREA

CITY           SKY/WX    TMP DP  RH WIND       PRES   REMARKS
OMAHA EPPLEY   PTCLDY    34  26  72 S13       29.76F WCI  25
FREMONT        CLEAR     36  25  64 S9        29.73F WCI  29
MILLARD        CLEAR     35  26  71 S7        29.76F WCI  29
OFFUTT AFB     CLEAR     31  25  78 SE7       29.76F WCI  24
PLATTSMOUTH    CLEAR     37  26  66 SE7       29.77F WCI  31
WAHOO          FAIR      38  24  58 SW13G20   29.74F WCI  30
$$




USA.gov is the U.S. government's official web portal to all federal, state and local government web resources and services.